Glendive, MT

9:22 AM MST on December 10, 2019 (GMT -0700)
Dawson Community

Weather History for KGDV - October, 2019

Change the Weather History Date:

Thursday, October 24, 2019

  Actual Average Record
Temperature  
Mean Temperature 40 °F 44 °F  
Max Temperature 47 °F 56 °F 79 °F (2007)
Min Temperature 33 °F 33 °F 18 °F (2002)
Degree Days  
Heating Degree Days 25 21  
Month to date heating degree days 557 379  
Year to date heating degree days 6424 4778  
Since 1 July heating degree days 858 486  
Cooling Degree Days 0 0  
Month to date cooling degree days 0 0  
Year to date cooling degree days 465 382  
Since 1 July cooling degree days 465 382  
Moisture  
Dew Point 30 °F    
Average Humidity 78    
Maximum Humidity 100    
Minimum Humidity 42    
Precipitation  
Precipitation 0.02 in 0.02 in 0.33 in (2004)
Month to date precipitation 0.61 0.91  
Year to date precipitation 17.78 12.57  
Sea Level Pressure  
Sea Level Pressure 30.29 in    
Wind  
Wind Speed 8 mph (WSW)    
Max Wind Speed 14 mph    
Max Gust Speed 20 mph    
Visibility 10 miles    
Events Rain , Snow    
T = Trace of Precipitation, MM = Missing Value Source: NWS Daily Summary

Daily Weather History Graph

Daily Weather History Graph

Search for Another Location

Airport or City:

Astronomy

Oct. 24, 2019 Rise Set
Actual Time 7:30 AM MDT 5:55 PM MDT
Civil Twilight 6:58 AM MDT 6:27 PM MDT
Nautical Twilight 6:23 AM MDT 7:02 PM MDT
Astronomical Twilight 5:47 AM MDT 7:38 PM MDT
Moon 2:39 AM MDT (10/24) 4:45 PM MDT (10/24)
Length of Visible Light 11h 28m
Length of Day
10h 25m
Waning Crescent, 16% of the Moon is Illuminated
Oct 24
Waning Crescent
Oct 27
New
Nov 4
First Quarter
Nov 12
Full
Nov 19
Last Quarter

Hourly Weather History & Observations

Time (MDT) Temp. Windchill Dew Point Humidity Pressure Visibility Wind Dir Wind Speed Gust Speed Precip Events Conditions
12:56 AM 35.1 °F 30.1 °F 32.0 °F 89% 30.39 in 10.0 mi West 5.8 mph - N/A   Overcast
1:21 AM 35.6 °F 29.9 °F 32.0 °F 87% 30.32 in 10.0 mi West 6.9 mph - N/A   Overcast
1:41 AM 33.8 °F 27.0 °F 32.0 °F 93% 30.32 in 10.0 mi West 8.1 mph - N/A   Overcast
1:56 AM 34.0 °F 26.0 °F 32.0 °F 92% 30.38 in 10.0 mi West 10.4 mph - N/A   Overcast
2:33 AM 35.6 °F 28.6 °F 32.0 °F 87% 30.31 in 10.0 mi WNW 9.2 mph - 0.00 in Rain Light Rain
2:56 AM 34.0 °F 26.6 °F 32.0 °F 92% 30.37 in 10.0 mi West 9.2 mph - 0.00 in Rain Light Rain
3:10 AM 33.8 °F 27.0 °F 33.8 °F 100% 30.31 in 7.0 mi West 8.1 mph - 0.00 in Rain Light Rain
3:32 AM 33.8 °F 28.6 °F 32.0 °F 93% 30.31 in 4.0 mi West 5.8 mph - 0.00 in Snow Light Snow
3:56 AM 33.1 °F 25.5 °F 32.0 °F 96% 30.38 in 5.0 mi West 9.2 mph - 0.00 in Snow Light Snow
4:56 AM 33.1 °F 26.9 °F 32.0 °F 96% 30.38 in 10.0 mi West 6.9 mph - 0.02 in   Overcast
5:24 AM 33.8 °F 28.6 °F 32.0 °F 93% 30.30 in 10.0 mi West 5.8 mph - N/A   Overcast
5:56 AM 34.0 °F 28.8 °F 32.0 °F 92% 30.38 in 10.0 mi WNW 5.8 mph - N/A   Overcast
6:56 AM 34.0 °F 28.0 °F 32.0 °F 92% 30.38 in 10.0 mi West 6.9 mph - N/A   Overcast
7:56 AM 33.1 °F 26.9 °F 30.9 °F 92% 30.38 in 10.0 mi WSW 6.9 mph - N/A   Overcast
8:56 AM 35.1 °F 28.6 °F 32.0 °F 89% 30.37 in 10.0 mi SW 8.1 mph - N/A   Overcast
9:56 AM 37.0 °F 30.4 °F 30.9 °F 79% 30.37 in 10.0 mi West 9.2 mph - N/A   Scattered Clouds
10:56 AM 39.0 °F 32.8 °F 28.9 °F 67% 30.35 in 10.0 mi West 9.2 mph - N/A   Partly Cloudy
11:56 AM 41.0 °F 34.3 °F 28.9 °F 62% 30.32 in 10.0 mi West 11.5 mph - N/A   Clear
12:56 PM 44.1 °F 38.1 °F 27.0 °F 51% 30.30 in 10.0 mi WSW 11.5 mph - N/A   Clear
1:56 PM 45.0 °F 39.3 °F 28.0 °F 52% 30.26 in 10.0 mi WSW 11.5 mph - N/A   Clear
2:56 PM 46.9 °F - 28.0 °F 48% 30.24 in 10.0 mi WSW 8.1 mph - N/A   Clear
3:56 PM 46.9 °F - 25.0 °F 42% 30.22 in 10.0 mi SW 13.8 mph 19.6 mph N/A   Clear
4:56 PM 45.0 °F 39.7 °F 26.1 °F 48% 30.22 in 10.0 mi SW 10.4 mph - N/A   Clear
5:56 PM 37.9 °F 32.1 °F 27.0 °F 65% 30.21 in 10.0 mi SSW 8.1 mph - N/A   Clear
6:56 PM 36.0 °F 29.0 °F 26.1 °F 67% 30.19 in 10.0 mi SSW 9.2 mph - N/A   Clear
7:56 PM 35.1 °F 29.3 °F 26.1 °F 70% 30.19 in 10.0 mi SSW 6.9 mph - N/A   Clear
8:56 PM 35.1 °F 30.1 °F 26.1 °F 70% 30.17 in 10.0 mi SSW 5.8 mph - N/A   Clear
9:56 PM 35.1 °F 27.9 °F 27.0 °F 72% 30.16 in 10.0 mi SSW 9.2 mph - N/A   Clear
10:56 PM 34.0 °F 26.0 °F 27.0 °F 75% 30.15 in 10.0 mi SSW 10.4 mph - N/A   Clear
11:56 PM 34.0 °F 28.0 °F 27.0 °F 75% 30.13 in 10.0 mi South 6.9 mph - N/A   Clear